Location: Fort Worth, Tx
(32.7431°N, 97.3695°W)
Time: 23:50:48
(UTC-04:00)

Vanguard 2 - Pass Details

Date: 26 February 2024
Orbit: 552 x 2916 km, 32.9° (Epoch: 24 April)

Event Time Altitude Azimuth Distance (km) Brightness Sun altitude
Rises 20:51:58 0° 253° (WSW) 4,265 12.7 -19.2°
Reaches altitude 10° 20:54:23 10° 252° (WSW) 3,546 11.9 -19.7°
Maximum altitude 21:04:04 83° 166° (SSE) 2,045 9.5 -21.8°
Enters shadow 21:12:45 31° 83° (E) 3,679 10.4 -23.6°
